CAPE
0 0 0 0 4 1 0 0 0 0 0 0 0 0 0 0 8 44 238 734 1037 896 860 1021 862 782 1236 1537 1767 2007 2537 2473 2176 1612 1738 1248 1484 1529 1652 1034 1877 2451 2286 2635
0 0 0 0 0 0 0 0 0 0 0 0 0 0 0 0 0 3 204 251 850 1032 1028 1232 1042 985 873 1798 1974 2639 2655 2349 2416 2066 1905 2292 1000 1450 1526 1048 2054 2499 2041 3027
0 0 0 0 0 0 0 0 0 0 0 0 0 0 0 0 0 0 0 210 391 1115 1126 1441 1304 1261 1199 1765 2381 2682 3197 3004 2634 2363 2168 2285 2081 1379 1832 1340 1376 1670 2290 2757
0 0 0 0 0 0 0 0 0 0 0 0 0 6 64 0 0 0 0 11 118 600 1222 1559 1339 1234 1209 1751 2079 3132 3300 3409 2928 2437 2244 2292 1823 1428 1482 1119 1558 2004 2076 2401
0 0 0 0 0 0 0 0 0 0 0 0 4 23 87 0 6 0 19 32 117 489 851 1471 1472 1579 1450 1644 1929 2611 3225 3790 3226 2988 3036 2255 2192 1675 1882 1522 1110 1279 2166 2342
0 0 0 0 0 0 0 0 0 0 0 0 4 0 22 0 0 1 7 0 185 360 630 1129 1831 1908 1794 1863 2102 2351 3361 3647 3666 3568 3109 3182 2282 2257 1399 2314 2155 1206 1630 1802
0 0 0 0 0 0 0 0 0 0 78 18 1 0 82 0 0 23 2 12 73 152 389 878 1783 1863 1949 2067 2254 2393 3396 3704 3822 3928 3497 3219 3120 2956 2315 1667 1850 1985 1507 1191
19 2 0 0 0 0 0 0 0 108 58 93 72 14 1 0 0 0 12 40 128 231 354 808 1438 2029 2317 2286 2408 2372 3441 3908 3868 3801 3703 3664 3711 2918 2775 2272 2211 1224 1584 1981
17 19 0 0 0 0 0 0 4 3 0 13 72 55 15 0 0 20 58 387 345 351 604 756 1489 1906 2353 2265 2741 2703 3577 3897 3903 3889 3917 3798 3618 2943 2468 2514 2084 1828 1920 1742
0 1 10 0 0 0 0 0 0 5 53 104 186 257 348 64 107 86 103 153 506 947 1088 977 1282 1639 1906 2016 2242 2797 3758 3834 3854 3682 3803 3812 3637 3641 3139 3169 2315 1769 2042 2135
0 0 0 10 0 0 2 0 1 11 68 170 48 282 128 94 239 214 408 771 959 1157 1480 1665 1380 1731 2048 2066 2335 2727 3280 3643 3640 3619 3462 3524 3642 3440 3530 3227 2804 2466 2784 2889
0 0 0 0 1 1 26 20 19 19 4 6 26 270 199 0 259 944 949 1032 1332 1315 1616 1986 2673 3211 2671 2608 2841 2876 3078 2914 3513 3499 3528 3570 3612 3416 3344 3175 3077 2620 2550 3039
0 0 0 0 0 0 0 6 11 17 21 42 21 214 372 271 451 729 1076 1281 1510 1392 1541 1779 2168 2913 3394 3645 3449 3760 3791 3104 3204 3576 3535 3679 3618 3541 3239 3219 2917 2696 3029 3078
0 0 0 0 0 0 0 0 0 0 0 0 1 5 420 50 13 396 1237 1196 1376 1316 1628 1664 1967 2802 3279 3667 3863 4150 4179 3909 4421 3465 3362 3422 3507 3468 3265 3281 3114 2841 2793 2742
0 0 0 0 0 0 0 0 0 0 0 0 0 0 1 615 725 1069 1004 989 1113 1037 1118 1307 1535 2327 2656 2897 3388 3830 3977 4190 4547 5062 4059 3989 3912 3754 3818 3596 3496 2958 2765 2754
0 0 0 0 0 0 0 0 0 0 0 0 0 0 464 563 623 702 467 558 430 476 502 612 927 1339 1844 2311 2279 2561 2887 4034 4693 4741 4745 4897 4751 4303 3808 3854 3602 3380 3190 2848
0 0 0 0 0 0 0 0 0 0 0 0 0 219 94 113 161 73 73 166 106 27 72 175 225 692 1180 1448 2020 1909 2314 3427 4026 4584 4113 3696 4497 4393 3733 3570 3567 3540 3200 3053
0 0 0 0 0 0 0 0 0 0 0 0 0 16 2 0 0 0 34 250 96 48 40 165 24 170 348 454 1063 1730 1999 2652 3706 3717 3937 4184 4052 3823 3849 3201 3171 3349 3537 3171
0 0 0 0 0 0 0 0 0 0 0 0 0 1 0 0 0 0 496 179 47 12 16 136 184 321 748 688 839 1328 1894 2395 3245 3250 1812 2163 2077 1899 1768 1754 2544 2735 3028 3302
0 0 0 0 0 0 0 0 0 0 0 0 0 0 0 0 7 23 125 55 15 1 108 226 165 203 139 611 620 869 1281 1686 2371 3079 2735 1567 1148 175 152 295 879 1559 2788 3191
0 1 0 0 0 0 0 0 0 0 0 0 0 0 2 3 7 50 100 361 116 254 493 451 467 369 555 628 462 1008 949 1237 1654 2054 2461 2531 1923 785 67 0 23 1046 2057 2831
0 0 0 0 0 0 0 0 0 0 0 0 1 1 5 33 116 198 227 312 333 474 641 626 419 552 582 666 784 829 1171 1359 1739 1650 1604 1775 2006 1815 1243 198 40 354 2316 2600
0 0 0 0 0 0 0 0 1 0 0 3 0 0 29 52 75 200 312 331 399 412 555 431 468 430 583 727 1209 922 1128 1534 1611 1479 1390 1383 1845 1951 2440 2294 2172 1543 2728 2814
0 0 0 0 0 0 1 9 35 25 15 43 19 9 43 52 73 146 274 474 403 368 369 376 303 568 617 751 821 959 1357 1136 1042 1246 1219 1225 1113 1949 2696 3210 2948 2568 2409 2589
0 0 0 2 7 9 12 35 33 25 41 69 25 43 170 131 149 244 437 614 585 525 363 495 506 468 539 603 553 687 728 960 795 887 882 990 942 1356 1980 2875 2154 1967 1745 1268
0 32 18 14 17 73 42 3 16 44 51 75 141 187 169 99 122 140 288 229 296 462 453 368 435 410 410 477 684 691 695 690 823 626 457 588 609 665 2374 1929 1726 1189 1070 1080
CIN
-0 -0 -0 -0 -0 -2 -0 -0 -0 -0 -0 -0 -0 -0 -0 -0 -6 -21 -11 -0 -8 -3 -9 -15 -17 -3 -4 -28 -27 -45 -18 -59 -46 -64 -31 -42 -19 -56 -31 -28 -26 -18 -5 -6
-0 -0 -0 -0 -0 -0 -0 -0 -0 -0 -0 -0 -0 -0 -0 -0 -0 -2 -18 -13 -0 -9 -7 -9 -18 -7 -4 -24 -29 -13 -20 -64 -14 -32 -22 -23 -51 -21 -24 -16 -4 -2 -6 -5
-0 -0 -0 -0 -0 -0 -0 -0 -0 -0 -0 -0 -0 -0 -0 -0 -0 -0 -0 -13 -4 -2 -4 -17 -19 -5 -3 -23 -29 -22 -14 -15 -21 -7 -20 -25 -40 -62 -29 -33 -18 -10 -4 -12
-0 -0 -0 -0 -0 -0 -0 -0 -0 -0 -0 -0 -0 -0 -19 -0 -0 -0 -0 -24 -9 -2 -3 -25 -31 -18 -0 -1 -8 -11 -7 -7 -15 -24 -17 -7 -27 -20 -12 -35 -4 -3 -7 -4
-0 -0 -0 -0 -0 -0 -0 -0 -0 -0 -0 -0 -2 -2 -35 -0 -4 -0 -2 -2 -2 -3 -1 -3 -16 -9 -2 -9 -10 -14 -17 -6 -6 -9 -12 -11 -14 -23 -48 -15 -39 -32 -15 -10
-0 -0 -0 -0 -0 -0 -0 -0 -0 -0 -0 -0 -2 -0 -11 -2 -0 -6 -13 -0 -3 -4 -2 -3 -7 -15 -7 -9 -22 -18 -34 -7 -2 -4 -15 -2 -13 -22 -29 -21 -16 -34 -16 -10
-0 -0 -0 -0 -0 -0 -0 -0 -0 -6 -3 -38 -1 -0 -6 -0 -0 -23 -48 -21 -3 -10 -9 -12 -2 -6 -11 -7 -26 -31 -27 -18 -1 -0 -1 -2 -1 -4 -19 -33 -22 -17 -11 -13
-0 -1 -0 -0 -0 -0 -0 -0 -0 -1 -5 -7 -21 -1 -0 -0 -0 -0 -29 -17 -5 -0 -3 -7 -7 -8 -9 -3 -30 -37 -34 -24 -4 -0 -0 -2 -1 -1 -4 -7 -11 -36 -33 -3
-1 -0 -0 -0 -0 -0 -0 -0 -1 -0 -0 -0 -1 -112 -23 -0 -0 -1 -28 -2 -1 -5 -1 -0 -8 -8 -5 -14 -18 -41 -37 -28 -21 -0 -0 -1 -1 -2 -2 -3 -15 -14 -27 -9
-0 -12 -1 -0 -0 -0 -0 -0 -0 -1 -2 -6 -3 -23 -18 -42 -66 -15 -0 -16 -3 -8 -24 -19 -5 -15 -13 -7 -2 -14 -27 -36 -26 -0 -0 -0 -0 -1 -3 -7 -17 -20 -11 -36
-0 -0 -0 -1 -0 -0 -4 -0 -0 -1 -4 -0 -1 -16 -20 -12 -27 -44 -12 -7 -33 -43 -48 -37 -29 -16 -16 -9 -7 -9 -26 -26 -21 -1 -1 -2 -3 -3 -0 -1 -10 -16 -5 -20
-0 -0 -0 -0 -0 -0 -1 -1 -2 -0 -0 -0 -4 -10 -48 -0 -7 -5 -28 -22 -63 -97 -92 -80 -73 -79 -36 -12 -15 -18 -22 -29 -14 -5 -2 -2 -1 -4 -2 -3 -3 -17 -21 -9
-0 -0 -0 -0 -0 -0 -0 -1 -2 -0 -0 -5 -0 -4 -0 -2 -13 -2 -3 -34 -19 -76 -117 -119 -129 -135 -111 -84 -79 -26 -24 -15 -6 -15 -1 -0 -0 -0 -1 -6 -6 -10 -4 -7
-0 -0 -0 -0 -0 -0 -0 -0 -0 -0 -0 -0 -0 -3 -58 -41 -41 -10 -27 -11 -0 -27 -62 -120 -115 -91 -96 -89 -81 -72 -35 -12 -14 -19 -12 -6 -5 -2 -1 -3 -14 -8 -17 -7
-0 -0 -0 -0 -0 -0 -0 -0 -0 -0 -0 -0 -0 -0 -2 -31 -8 -8 -6 -4 -0 -13 -60 -84 -75 -30 -43 -55 -35 -26 -25 -52 -22 -10 -35 -21 -21 -14 -10 -10 -15 -17 -23 -22
-0 -0 -0 -0 -0 -0 -0 -0 -0 -0 -0 -0 -0 -0 -35 -27 -25 -10 -16 -17 -8 -58 -97 -113 -85 -59 -27 -14 -33 -32 -42 -12 -4 -10 -21 -23 -31 -24 -19 -17 -12 -16 -8 -10
-0 -0 -0 -0 -0 -0 -0 -0 -0 -0 -0 -0 -0 -29 -46 -58 -44 -45 -21 -21 -28 -39 -93 -102 -117 -71 -35 -22 -0 -23 -13 -3 -7 -3 -31 -41 -10 -13 -20 -10 -12 -10 -8 -5
-0 -0 -0 -0 -0 -0 -0 -0 -0 -0 -0 -0 -0 -1 -13 -0 -0 -0 -17 -8 -11 -24 -50 -73 -100 -81 -90 -120 -24 -9 -4 -4 -1 -14 -4 -5 -11 -8 -9 -10 -9 -11 -3 -3
-0 -0 -0 -0 -0 -0 -0 -0 -0 -0 -0 -0 -0 -1 -0 -0 -0 -0 -14 -14 -5 -13 -13 -32 -25 -29 -16 -37 -34 -10 -1 -1 -0 -3 -74 -28 -31 -41 -103 -50 -8 -15 -12 -1
-0 -0 -0 -0 -0 -0 -0 -0 -0 -0 -0 -0 -0 -0 -0 -0 -0 -0 -29 -0 -0 -0 -25 -8 -37 -31 -60 -15 -16 -6 -8 -1 -1 -0 -10 -65 -140 -40 -34 -72 -50 -0 -8 -4
-0 -0 -0 -0 -0 -0 -0 -0 -0 -0 -0 -0 -0 -0 -0 -0 -0 -2 -7 -4 -8 -0 -0 -0 -4 -14 -5 -9 -32 -2 -4 -0 -2 -7 -7 -2 -71 -200 -62 -0 -230 -15 -3 -6
-0 -0 -0 -0 -0 -0 -0 -0 -0 -0 -0 -0 -0 -0 -1 -3 -4 -3 -3 -0 -4 -0 -0 -0 -4 -2 -8 -6 -2 -5 -3 -2 -2 -2 -20 -5 -16 -24 -29 -85 -41 -7 -8 -9
-0 -0 -0 -0 -0 -0 -0 -0 -0 -0 -0 -0 -0 -0 -21 -23 -44 -34 -17 -2 -0 -0 -0 -8 -5 -28 -21 -18 -3 -3 -6 -3 -1 -1 -5 -5 -6 -20 -15 -12 -4 -11 -7 -2
-0 -0 -0 -0 -0 -0 -0 -1 -3 -18 -43 -3 -1 -0 -24 -37 -54 -44 -25 -0 -1 -2 -7 -12 -31 -5 -14 -1 -9 -3 -3 -5 -4 -1 -3 -4 -10 -4 -5 -9 -2 -3 -3 -1
-0 -0 -0 -0 -1 -1 -0 -1 -0 -8 -25 -0 -3 -10 -5 -9 -10 -1 -0 -0 -0 -1 -13 -3 -2 -10 -2 -0 -2 -1 -2 -4 -2 -1 -0 -9 -12 -17 -9 -7 -15 -3 -3 -0
-0 -2 -0 -0 -8 -2 -3 -1 -8 -6 -0 -11 -5 -3 -7 -6 -17 -15 -1 -11 -10 -1 -0 -1 -0 -5 -17 -10 -0 -1 -0 -2 -2 -0 -1 -7 -19 -13 -13 -7 -1 -3 -8 -5
Wind_Speed
nan nan nan nan nan nan nan nan nan nan nan nan nan nan nan nan nan nan 22 27 27 29 27 26 21 21 22 21 17 14 14 12 10 8 10 3 5 6 7 8 2 7 9 9
nan nan nan nan nan nan nan nan nan nan nan nan nan nan nan nan nan nan 24 22 29 28 31 29 26 26 19 22 20 15 15 16 10 10 8 4 7 7 7 6 2 3 9 13
nan nan nan nan nan nan nan nan nan nan nan nan nan nan nan nan nan nan nan 27 25 34 36 31 31 32 26 27 23 20 17 16 11 12 8 3 9 9 6 5 3 3 4 11
nan nan nan nan nan nan nan nan nan nan nan nan nan nan nan nan nan nan nan nan 24 27 33 36 33 29 30 26 24 21 18 20 14 10 7 12 8 8 7 9 4 3 2 5
nan nan nan nan nan nan nan nan nan nan nan nan nan nan nan nan nan nan nan nan 27 29 32 38 36 33 29 27 27 24 18 18 15 10 6 11 11 5 4 7 8 3 5 2
nan nan nan nan nan nan nan nan nan nan nan nan nan nan nan nan nan nan nan nan 15 26 30 29 34 35 31 30 27 26 23 16 17 13 10 8 11 7 6 3 5 5 9 9
nan nan nan nan nan nan nan nan nan nan nan nan nan nan nan nan nan nan nan nan nan 24 23 24 24 27 30 31 32 25 25 20 18 16 10 11 10 9 6 5 6 6 5 6
nan nan nan nan nan nan nan nan nan 6 nan nan nan nan nan nan nan nan nan nan 18 17 29 23 19 21 27 27 33 31 28 20 17 15 12 9 9 11 9 8 10 10 6 6
nan nan nan nan nan nan nan nan nan nan nan nan nan nan nan nan nan nan nan 27 26 15 9 33 26 22 23 26 30 31 30 25 18 16 11 9 10 11 9 10 10 11 10 10
nan nan nan nan nan nan nan nan nan nan nan 7 9 29 16 nan 24 nan 17 35 30 27 24 15 21 36 26 26 25 29 29 27 23 16 12 14 9 7 7 11 14 14 12 13
nan nan nan nan nan nan nan nan nan nan nan 10 nan 28 24 nan 35 33 34 37 29 29 27 24 18 25 38 30 27 26 27 25 24 19 15 13 12 12 9 4 11 10 10 12
nan nan nan nan nan nan nan nan nan nan nan nan nan 10 49 nan 15 39 40 42 43 35 34 34 33 34 30 36 36 29 27 25 22 18 16 17 14 12 13 10 9 13 8 10
nan nan nan nan nan nan nan nan nan nan nan nan nan 16 48 41 40 33 44 44 48 47 41 38 42 40 38 38 36 36 31 27 25 21 20 17 17 16 13 14 10 12 13 10
nan nan nan nan nan nan nan nan nan nan nan nan nan nan 34 nan nan 47 62 43 60 37 46 46 41 42 43 40 39 37 30 27 27 25 19 17 16 15 14 12 13 12 14 13
nan nan nan nan nan nan nan nan nan nan nan nan nan nan nan 61 60 68 66 58 62 49 50 47 46 45 48 47 41 40 35 34 30 27 23 14 14 15 13 9 14 13 17 16
nan nan nan nan nan nan nan nan nan nan nan nan nan nan 52 60 62 69 64 62 61 54 47 54 56 54 49 48 47 42 40 39 35 31 28 25 23 20 14 14 12 13 15 16
nan nan nan nan nan nan nan nan nan nan nan nan nan 50 nan 54 53 nan nan 58 61 nan nan 50 54 58 54 50 50 51 45 41 41 37 36 33 30 27 20 12 13 13 12 15
nan nan nan nan nan nan nan nan nan nan nan nan nan nan nan nan nan nan nan 61 nan nan nan 49 nan 51 55 53 54 54 52 46 45 46 42 40 38 34 29 19 12 13 15 12
nan nan nan nan nan nan nan nan nan nan nan nan nan nan nan nan nan nan 54 52 nan nan nan 40 41 44 49 48 54 54 53 53 52 51 47 46 48 51 44 39 19 8 13 14
nan nan nan nan nan nan nan nan nan nan nan nan nan nan nan nan nan nan 42 nan nan nan 31 32 31 33 36 42 47 49 54 55 55 58 56 52 44 53 52 61 39 28 10 14
nan nan nan nan nan nan nan nan nan nan nan nan nan nan nan nan nan nan 23 25 25 24 20 22 24 29 32 32 37 42 48 50 56 60 63 63 58 64 nan nan nan 28 9 17
nan nan nan nan nan nan nan nan nan nan nan nan nan nan nan nan 24 20 17 15 20 17 18 15 14 16 20 21 30 35 39 46 53 60 62 60 61 68 70 58 nan 10 14 20
nan nan nan nan nan nan nan nan nan nan nan nan nan nan nan nan nan 15 14 14 17 18 22 24 21 18 18 20 23 21 26 37 46 54 57 56 55 56 53 40 29 15 16 25
nan nan nan nan nan nan nan nan nan nan nan nan nan nan nan nan nan 15 15 18 21 20 20 23 22 23 23 22 21 22 29 30 33 37 46 50 52 51 44 45 38 36 29 29
nan nan nan nan nan nan nan nan nan nan nan nan nan nan 14 15 14 15 14 16 21 23 24 27 28 29 27 29 31 30 29 32 35 36 36 39 47 47 49 51 53 45 50 54
nan nan nan nan nan nan nan nan nan nan nan nan 17 14 15 nan 19 18 20 25 28 25 26 28 30 31 31 33 33 33 34 36 34 40 39 35 38 47 55 57 62 65 55 53
Wind_Direction
nan nan nan nan nan nan nan nan nan nan nan nan nan nan nan nan nan nan 20 13 9 17 13 353 12 2 341 339 338 340 338 318 306 290 303 263 295 286 342 28 275 246 208 240
nan nan nan nan nan nan nan nan nan nan nan nan nan nan nan nan nan nan 4 21 9 10 7 5 4 358 358 342 351 338 330 320 311 293 324 328 283 271 316 21 2 180 226 243
nan nan nan nan nan nan nan nan nan nan nan nan nan nan nan nan nan nan nan 1 16 3 0 359 4 9 358 344 344 349 341 323 315 311 302 293 283 282 293 296 11 360 282 271
nan nan nan nan nan nan nan nan nan nan nan nan nan nan nan nan nan nan nan nan 353 354 354 350 356 4 4 358 345 334 337 333 321 309 297 312 295 295 329 289 294 290 320 263
nan nan nan nan nan nan nan nan nan nan nan nan nan nan nan nan nan nan nan nan 322 333 345 347 353 354 359 354 354 346 336 327 331 329 338 299 297 291 240 310 312 306 281 230
nan nan nan nan nan nan nan nan nan nan nan nan nan nan nan nan nan nan nan nan 282 316 334 343 348 347 350 346 348 350 348 338 340 325 317 308 311 296 264 269 275 307 288 279
nan nan nan nan nan nan nan nan nan nan nan nan nan nan nan nan nan nan nan nan nan 300 322 330 340 341 346 349 349 348 349 345 341 340 319 308 304 299 285 284 269 260 273 295
nan nan nan nan nan nan nan nan nan 83 nan nan nan nan nan nan nan nan nan nan 281 313 328 324 337 338 340 345 347 354 349 348 345 356 354 323 313 277 259 268 262 270 268 274
nan nan nan nan nan nan nan nan nan nan nan nan nan nan nan nan nan nan nan 291 306 294 228 317 321 333 336 343 340 347 346 349 351 354 349 354 334 317 294 292 288 268 287 285
nan nan nan nan nan nan nan nan nan nan nan 147 297 300 274 nan 212 nan 266 264 277 288 278 244 307 321 330 336 336 337 334 345 349 353 343 341 323 326 317 283 296 297 290 279
nan nan nan nan nan nan nan nan nan nan nan 198 nan 297 280 nan 268 274 235 241 271 277 279 270 252 302 314 319 323 320 328 338 350 354 350 343 334 329 319 309 306 297 293 292
nan nan nan nan nan nan nan nan nan nan nan nan nan 275 286 nan 171 224 245 253 262 263 263 263 255 244 270 294 310 313 317 327 335 349 357 344 320 323 318 318 304 316 313 306
nan nan nan nan nan nan nan nan nan nan nan nan nan 278 288 279 276 265 270 269 271 267 256 256 257 256 253 253 255 290 302 309 319 325 334 339 337 334 325 319 310 293 296 288
nan nan nan nan nan nan nan nan nan nan nan nan nan nan 290 nan nan 266 264 273 255 262 256 252 249 254 255 252 255 259 263 285 288 305 320 330 329 333 339 323 309 293 289 288
nan nan nan nan nan nan nan nan nan nan nan nan nan nan nan 239 253 261 263 265 264 270 265 260 256 255 253 251 244 248 254 255 258 270 285 300 305 316 311 307 301 300 293 290
nan nan nan nan nan nan nan nan nan nan nan nan nan nan 249 252 247 256 265 273 274 270 265 262 260 258 253 247 246 241 240 241 254 254 254 260 274 289 302 297 291 296 289 290
nan nan nan nan nan nan nan nan nan nan nan nan nan 268 nan 262 264 nan nan 274 272 nan nan 251 249 250 248 244 243 241 235 238 240 254 254 251 252 265 269 279 281 286 287 282
nan nan nan nan nan nan nan nan nan nan nan nan nan nan nan nan nan nan nan 270 nan nan nan 263 nan 249 245 241 239 236 240 233 242 241 251 253 259 254 260 253 266 276 272 279
nan nan nan nan nan nan nan nan nan nan nan nan nan nan nan nan nan nan 277 268 nan nan nan 264 261 253 248 243 241 241 237 239 240 243 247 251 247 253 243 230 217 253 260 268
nan nan nan nan nan nan nan nan nan nan nan nan nan nan nan nan nan nan 278 nan nan nan 268 261 253 248 244 243 241 241 240 237 240 241 247 245 250 257 251 244 220 179 246 268
nan nan nan nan nan nan nan nan nan nan nan nan nan nan nan nan nan nan 263 262 266 269 260 258 256 251 242 242 243 242 242 239 238 239 242 243 247 251 nan nan nan 178 181 253
nan nan nan nan nan nan nan nan nan nan nan nan nan nan nan nan 262 256 256 259 257 258 259 262 257 247 252 239 248 245 243 241 243 239 240 243 248 256 262 272 nan 140 222 259
nan nan nan nan nan nan nan nan nan nan nan nan nan nan nan nan nan 255 254 257 267 259 261 260 259 256 264 254 241 256 256 248 243 244 245 245 245 252 262 268 265 287 260 259
nan nan nan nan nan nan nan nan nan nan nan nan nan nan nan nan nan 255 254 257 263 268 275 279 278 270 254 267 266 256 245 253 251 247 250 249 245 249 251 255 251 252 254 258
nan nan nan nan nan nan nan nan nan nan nan nan nan nan 276 257 259 258 272 278 277 268 268 272 277 279 280 269 264 266 265 244 250 253 252 250 250 245 244 243 242 243 247 246
nan nan nan nan nan nan nan nan nan nan nan nan 288 265 272 nan 287 284 296 290 290 286 286 286 283 278 274 270 264 257 259 261 247 249 247 249 249 244 247 241 246 240 254 258